Location: Unspecified
(0.0000°N, 0.0000°E)
Time: 05:32:34
(UTC+00:00)

Transit 2A Rocket - All Passes

Search period start: 19 August 2017 00:00
Search period end: 29 August 2017 00:00
Orbit: 587 x 916 km, 66.7° (Epoch: 18 August)

Date Brightness Start Highest point End Pass type
(mag) Time Alt. Az. Time Alt. Az. Time Alt. Az.
19 Aug - 04:58:10 10° SW 05:02:12 41° WNW 05:06:23 10° N visible
19 Aug - 15:44:56 10° N 15:50:21 33° ENE 15:55:38 10° SE daylight
19 Aug - 17:28:19 10° WNW 17:32:43 21° WSW 17:37:02 10° SSW daylight
20 Aug - 04:15:36 10° SSW 04:19:52 77° ESE 04:24:18 10° NNE visible
20 Aug - 15:04:06 10° NNE 15:07:56 17° ENE 15:11:42 10° ESE daylight
20 Aug - 16:44:43 10° NW 16:50:23 41° WSW 16:55:53 10° S daylight
21 Aug - 03:33:47 10° S 03:37:33 30° ESE 03:41:26 10° NE visible
21 Aug - 16:01:57 10° NNW 16:08:04 80° WSW 16:13:57 10° SSE daylight
22 Aug - 02:53:14 10° SE 02:55:16 13° ESE 02:57:18 10° E visible
22 Aug - 04:34:02 10° WSW 04:37:29 23° WNW 04:41:03 10° NNW visible
22 Aug - 15:19:47 10° N 15:25:42 53° ENE 15:31:26 10° SE daylight
22 Aug - 17:05:32 10° W 17:08:03 13° WSW 17:10:31 10° SW daylight
23 Aug - 03:50:56 10° SSW 03:55:07 56° WNW 03:59:30 10° N visible
23 Aug - 14:38:16 10° NNE 14:43:19 27° ENE 14:48:14 10° SE daylight
23 Aug - 16:20:47 10° NW 16:25:42 26° WSW 16:30:29 10° SSW daylight
24 Aug - 03:08:36 10° S 03:12:48 57° ESE 03:17:10 10° NNE visible
24 Aug - 13:58:03 10° NE 14:00:53 13° ENE 14:03:41 10° E daylight
24 Aug - 15:37:30 10° NW 15:43:23 51° WSW 15:49:02 10° S daylight
25 Aug - 02:27:04 10° SSE 02:30:30 23° ESE 02:34:01 10° NE night (unlit)
25 Aug - 04:10:39 10° W 04:12:48 13° WNW 04:14:59 10° NW visible
25 Aug - 14:54:56 10° NNW 15:01:02 83° ENE 15:06:55 10° SSE daylight
26 Aug - 03:26:35 10° SW 03:30:23 31° WNW 03:34:22 10° N night (unlit)
26 Aug - 14:12:58 10° N 14:18:40 42° ENE 14:24:11 10° SE daylight
26 Aug - 15:57:27 10° WNW 16:01:01 16° WSW 16:04:31 10° SSW daylight
27 Aug - 02:43:46 10° SSW 02:48:03 77° WNW 02:52:32 10° NNE night (unlit)
27 Aug - 13:31:44 10° NNE 13:36:16 22° ENE 13:40:41 10° ESE daylight
27 Aug - 15:13:22 10° NW 15:18:41 32° WSW 15:23:49 10° S daylight
28 Aug - 02:01:40 10° S 02:05:44 42° ESE 02:09:58 10° NE night (unlit)
28 Aug - 12:53:06 10° ENE 12:53:49 10° ENE 12:54:32 10° ENE daylight
28 Aug - 14:30:21 10° NNW 14:36:22 64° WSW 14:42:08 10° S daylight
